Philadelphia, PA

10:45 AM EDT on March 26, 2017 (GMT -0400)
Philadelphia International

Weather History for KPHL - April, 2013

Change the Weather History Date:

Monday, April 1, 2013

  Actual Average Record
Temperature  
Mean Temperature 53 °F 49 °F  
Max Temperature 66 °F 59 °F 81 °F (1978)
Min Temperature 39 °F 39 °F 14 °F (1923)
Degree Days  
Heating Degree Days 12 16  
Month to date heating degree days 12 16  
Since 1 July heating degree days 3949 4163  
Cooling Degree Days 0 0  
Month to date cooling degree days 0 0  
Year to date cooling degree days 0 1  
Growing Degree Days 2 (Base 50)    
Moisture  
Dew Point 37 °F    
Average Humidity 59    
Maximum Humidity 96    
Minimum Humidity 22    
Precipitation  
Precipitation T in 0.13 in 1.48 in (1948)
Month to date precipitation T 0.13  
Year to date precipitation 7.88 9.60  
Snow  
Snow 0.00 in 0.00 in 6.60 in (1924)
Month to date snowfall 0.0 0.0  
Since 1 July snowfall 8.3 21.9  
Snow Depth 0.00 in    
Sea Level Pressure  
Sea Level Pressure 29.76 in    
Wind  
Wind Speed 13 mph (WSW)    
Max Wind Speed 30 mph    
Max Gust Speed 37 mph    
Visibility 6 miles    
Events Fog , Rain    
T = Trace of Precipitation, MM = Missing Value Source: NWS Daily Summary

Daily Weather History Graph

Daily Weather History Graph

Search for Another Location

Airport or City:

Trip Planner

Search our weather history database for the weather conditions in past years. The results will help you decide how hot, cold, wet, or windy it might be!

Date:

Astronomy

Apr. 01, 2013 Rise Set
Actual Time 6:44 AM EDT 7:25 PM EDT
Civil Twilight 6:17 AM EDT 7:52 PM EDT
Nautical Twilight 5:45 AM EDT 8:25 PM EDT
Astronomical Twilight 5:12 AM EDT 8:58 PM EDT
Moon 12:30 AM EDT (4/1) 10:29 AM EDT (4/1)
Length of Visible Light 13h 35m
Length of Day
12h 40m
Waning Gibbous, 67% of the Moon is Illuminated
Apr 1
Waning Gibbous
Apr 3
Last Quarter
Apr 10
New
Apr 18
First Quarter
Apr 25
Full

Hourly Weather History & Observations

Time (EDT) Temp. Windchill Dew Point Humidity Pressure Visibility Wind Dir Wind Speed Gust Speed Precip Events Conditions
12:22 AM 48.2 °F - 46.4 °F 93% 29.75 in 6.0 mi WSW 11.5 mph - N/A   Mostly Cloudy
12:30 AM 48.2 °F - 46.4 °F 93% 29.75 in 6.0 mi WSW 9.2 mph - N/A   Scattered Clouds
12:54 AM 48.9 °F - 45.0 °F 86% 29.75 in 6.0 mi WSW 6.9 mph - N/A   Scattered Clouds
1:54 AM 44.1 °F 40.8 °F 43.0 °F 96% 29.75 in 5.0 mi WSW 5.8 mph - N/A   Scattered Clouds
2:09 AM 46.4 °F 43.5 °F 44.6 °F 93% 29.76 in 5.0 mi WSW 5.8 mph - N/A   Mostly Cloudy
2:14 AM 44.6 °F 40.7 °F 44.6 °F 100% 29.76 in 4.0 mi SW 6.9 mph - N/A   Overcast
2:54 AM 46.0 °F 42.5 °F 45.0 °F 96% 29.76 in 4.0 mi WSW 6.9 mph - N/A   Mostly Cloudy
3:42 AM 46.4 °F 41.9 °F 44.6 °F 93% 29.75 in 2.5 mi SW 9.2 mph - N/A   Mostly Cloudy
3:54 AM 46.0 °F 41.9 °F 44.1 °F 93% 29.75 in 2.5 mi WSW 8.1 mph - N/A   Mostly Cloudy
4:37 AM 44.6 °F 41.4 °F 42.8 °F 93% 29.75 in 2.5 mi WSW 5.8 mph - N/A   Scattered Clouds
4:54 AM 42.1 °F 38.4 °F 41.0 °F 96% 29.76 in 2.5 mi West 5.8 mph - N/A   Scattered Clouds
5:09 AM 42.8 °F 39.3 °F 41.0 °F 93% 29.76 in 4.0 mi WSW 5.8 mph - N/A   Scattered Clouds
5:46 AM 41.0 °F 38.0 °F 39.2 °F 93% 29.76 in 1.2 mi WSW 4.6 mph - N/A   Partly Cloudy
5:50 AM 42.8 °F 40.1 °F 39.2 °F 87% 29.75 in 0.8 mi WSW 4.6 mph - N/A   Partly Cloudy
5:54 AM 42.1 °F 39.2 °F 39.9 °F 92% 29.75 in 0.8 mi West 4.6 mph - N/A   Scattered Clouds
6:07 AM 41.0 °F 38.0 °F 39.2 °F 93% 29.75 in 1.0 mi SW 4.6 mph - N/A   Scattered Clouds
6:20 AM 41.0 °F 38.0 °F 39.2 °F 93% 29.75 in 2.0 mi SSW 4.6 mph - N/A Fog Scattered Clouds
6:29 AM 42.8 °F 41.1 °F 42.8 °F 100% 29.74 in 3.0 mi SW 3.5 mph - N/A   Scattered Clouds
6:37 AM 42.8 °F - 41.0 °F 93% 29.74 in 2.5 mi Calm Calm - N/A   Scattered Clouds
6:54 AM 42.1 °F - 39.9 °F 92% 29.74 in 2.5 mi Calm Calm - N/A   Scattered Clouds
6:58 AM 41.0 °F 39.0 °F 39.2 °F 93% 29.74 in 4.0 mi SW 3.5 mph - N/A   Scattered Clouds
7:17 AM 42.8 °F 41.1 °F 41.0 °F 93% 29.74 in 5.0 mi SSW 3.5 mph - N/A   Partly Cloudy
7:54 AM 44.1 °F - 43.0 °F 96% 29.75 in 6.0 mi Calm Calm - N/A   Partly Cloudy
8:13 AM 46.4 °F 42.9 °F 42.8 °F 87% 29.75 in 7.0 mi SW 6.9 mph - N/A   Partly Cloudy
8:54 AM 50.0 °F - 44.1 °F 80% 29.75 in 9.0 mi SW 8.1 mph - N/A   Scattered Clouds
9:51 AM 53.6 °F - 42.8 °F 67% 29.74 in 10.0 mi SW 12.7 mph - N/A   Mostly Cloudy
9:54 AM 54.0 °F - 43.0 °F 66% 29.74 in 10.0 mi SW 13.8 mph - N/A   Mostly Cloudy
10:54 AM 57.9 °F - 41.0 °F 53% 29.73 in 10.0 mi WSW 16.1 mph - N/A   Mostly Cloudy
11:54 AM 62.1 °F - 41.0 °F 46% 29.72 in 10.0 mi WSW 16.1 mph 26.5 mph N/A   Scattered Clouds
12:54 PM 64.0 °F - 37.9 °F 38% 29.70 in 10.0 mi WSW 18.4 mph 28.8 mph N/A   Mostly Cloudy
1:54 PM 64.0 °F - 37.0 °F 37% 29.68 in 10.0 mi West 18.4 mph 27.6 mph N/A   Mostly Cloudy
2:54 PM 62.1 °F - 36.0 °F 38% 29.68 in 10.0 mi WNW 17.3 mph 25.3 mph N/A   Overcast
3:54 PM 57.9 °F - 33.1 °F 39% 29.71 in 10.0 mi NW 21.9 mph 32.2 mph 0.00 in Rain Light Rain
4:54 PM 54.0 °F - 33.1 °F 45% 29.75 in 10.0 mi WNW 21.9 mph 32.2 mph 0.00 in   Mostly Cloudy
5:54 PM 54.0 °F - 27.0 °F 35% 29.78 in 10.0 mi WNW 21.9 mph 26.5 mph N/A   Mostly Cloudy
6:54 PM 52.0 °F - 23.0 °F 32% 29.80 in 10.0 mi WNW 19.6 mph 27.6 mph N/A   Scattered Clouds
7:54 PM 48.9 °F - 19.0 °F 31% 29.85 in 10.0 mi WNW 15.0 mph 23.0 mph N/A   Scattered Clouds
8:54 PM 48.0 °F - 18.0 °F 30% 29.88 in 10.0 mi WNW 13.8 mph - N/A   Partly Cloudy
9:54 PM 46.9 °F - 14.0 °F 27% 29.91 in 10.0 mi WNW 13.8 mph 21.9 mph N/A   Partly Cloudy
10:54 PM 45.0 °F 37.9 °F 9.0 °F 23% 29.94 in 10.0 mi NW 16.1 mph 24.2 mph N/A   Partly Cloudy
11:54 PM 42.1 °F 33.9 °F 9.0 °F 26% 29.96 in 10.0 mi NW 17.3 mph 24.2 mph N/A   Clear